This is the latest recevied weather packets stored in our database for station/object ES0THZ-13. If no packets are shown the sender has not sent any weather packets the latest 10 day(s).
| Time | Temp. | Humidity | Pressure | Rain* | Wind** | Luminosity | Snow |
|---|---|---|---|---|---|---|---|
| 1777633311 | 20° C | 59% | 1016.9 hPa | - | - | - | - |
| 1777632185 | 19.44° C | 60% | 1016.7 hPa | - | - | - | - |
| 1777631176 | 19.44° C | 61% | 1015.6 hPa | - | - | - | - |
| 1777630046 | 19.44° C | 62% | 1017.6 hPa | - | - | - | - |
| 1777628936 | 18.89° C | 63% | 1016.9 hPa | - | - | - | - |
| 1777627861 | 20° C | 63% | 1017.6 hPa | - | - | - | - |
| 1777626841 | 20° C | 66% | 1016.9 hPa | - | - | - | - |
| 1777625721 | 17.78° C | 68% | 1017.1 hPa | - | - | - | - |
| 1777624626 | 17.22° C | 68% | 1017.5 hPa | - | - | - | - |
| 1777623491 | 16.67° C | 69% | 1017.4 hPa | - | - | - | - |
| 1777622476 | 17.78° C | 69% | 1017.2 hPa | - | - | - | - |
| 1777621276 | 17.22° C | 70% | 1018.3 hPa | - | - | - | - |
| 1777620171 | 16.67° C | 71% | 1018 hPa | - | - | - | - |
| 1777619091 | 16.67° C | 71% | 1018.8 hPa | - | - | - | - |
| 1777617986 | 16.67° C | 72% | 1018.3 hPa | - | - | - | - |
| 1777616991 | 16.67° C | 72% | 1019 hPa | - | - | - | - |
| 1777615806 | 16.11° C | 73% | 1017.9 hPa | - | - | - | - |
| 1777614656 | 15.56° C | 74% | 1018.3 hPa | - | - | - | - |
| 1777613541 | 15° C | 75% | 1018.7 hPa | - | - | - | - |
| 1777612551 | 13.89° C | 76% | 1018.7 hPa | - | - | - | - |
| 1777611526 | 12.22° C | 77% | 1018.7 hPa | - | - | - | - |
| 1777610456 | 11.67° C | 78% | 1017.9 hPa | - | - | - | - |
| 1777609311 | 10.56° C | 79% | 1018.4 hPa | - | - | - | - |
| 1777608346 | 9.44° C | 80% | 1018.7 hPa | - | - | - | - |
| 1777607391 | 8.89° C | 81% | 1018.8 hPa | - | - | - | - |
* Rain since midnight (hover to see other rain measurements)
** Current wind speed in m/s (hover to see current wind gust speed)